Regional Weather Roundup
Issued by NWS

Home | Current Version | Previous Version | Text Only | Print | Product List | Glossary Off
Versions: 1 2 3 4 5 6 7 8 9 10 11 12 13 14 15 16 17 18 19 20 21 22 23 24 25 26 27 28 29 30 31 32 33 34 35 36 37 38 39 40 41 42 43 44 45 46 47 48 49 50

000
ASUS43 KMPX 210701
RWRMN
WEATHER ROUNDUP FOR MINNESOTA
NATIONAL WEATHER SERVICE TWIN CITIES/CHANHASSEN MN
200 AM CDT THU SEP 21 2017


NOTE: "FAIR" INDICATES FEW OR NO CLOUDS BELOW 12,000 FEET WITH NO
SIGNIFICANT WEATHER AND/OR OBSTRUCTIONS TO VISIBILITY. N/A MEANS
CURRENT SKY AND/OR WEATHER CONDITIONS ARE NOT AVAILABLE.

MNZ060>063-068>070-210800-
   Twin Cities Metro

CITY           SKY/WX    TMP DP  RH WIND       PRES   REMARKS
TWIN CITIES    CLEAR     57  52  83 CALM      30.00R
ST PAUL        CLEAR     55  52  89 CALM      30.00R
CRYSTAL        CLEAR     50  47  89 CALM      29.98S
BLAINE         CLEAR     50  50 100 CALM      30.00R
LAKEVILLE      CLEAR     48  48 100 CALM      30.00R
EDEN PRAIRIE   CLEAR     54  51  90 CALM      29.98S
SOUTH ST PAUL  CLEAR     54  51  89 CALM      30.00R
LAKE ELMO      FAIR      50  48  93 CALM      30.02R FOG
$$
MNZ001>005-007-008-013>017-022>024-027-028-210800-
   Northwest Minnesota

CITY           SKY/WX    TMP DP  RH WIND       PRES   REMARKS
BEMIDJI        CLEAR     47  44  87 CALM      29.93S
HALLOCK        CLOUDY    54  45  71 S16       29.80S
ROSEAU         CLEAR     52  45  76 S12       29.85R
WARROAD        CLEAR     54  45  71 S6        29.87R
CROOKSTON      CLEAR     55  45  67 S12       29.86R
FOSSTON        CLEAR     52  45  76 SE9       29.90R
DETROIT LAKES  CLEAR     52  46  82 SE8       29.93R
MOORHEAD       CLEAR     54  45  71 SE9       29.88S
PARK RAPIDS    CLEAR     50  43  77 SE8       29.95R
MAHNOMEN       FAIR      52  43  72 SE6       29.90R
$$
MNZ006-009>011-018-025>026-210800-
   North Central Minnesota

CITY           SKY/WX    TMP DP  RH WIND       PRES   REMARKS
BAUDETTE       CLEAR     49  45  86 S8        29.89R
FLAG ISLAND    CLEAR     59  48  67 S8        29.85R
INTL FALLS     CLEAR     43  40  89 SE3       29.94R
WASKISH        CLEAR     52  45  76 S6        29.93R
BIG FORK       CLEAR     43  41  93 CALM      29.97R
LONGVILLE      CLEAR     41  41 100 CALM      29.97S
GRAND RAPIDS   CLEAR     48  45  89 S5        30.01R
CRANE LAKE     CLEAR     39  37  93 CALM      30.01R
ORR            CLEAR     48  43  81 CALM      29.97R
COOK           CLEAR     45  43  93 CALM      30.00R
WALKER         FAIR      53  44  72 SE6       29.95S
$$
MNZ012-019>021-037-210800-
   Northeast Minnesota

CITY           SKY/WX    TMP DP  RH WIND       PRES   REMARKS
DULUTH         CLEAR     45  43  93 CALM      30.01R
ELY            CLEAR     43  43 100 CALM      30.01R
HIBBING        CLEAR     37  37 100 NW3       30.01R
EVELETH        CLEAR     41  38  90 CALM      30.02R
DULUTH HARBOR  CLEAR     54  52  94 SW3       30.01R
GRAND MARAIS     N/A     50  47  89 NW5       30.00R
$$
MNZ029>031-032-039>041-046>048-054>057-064-210800-
   West Central Minnesota

CITY           SKY/WX    TMP DP  RH WIND       PRES   REMARKS
FERGUS FALLS   CLEAR     55  46  71 SE7       29.92R
WHEATON        CLOUDY    50  46  87 SE9       29.92S
MORRIS         CLEAR     52  48  87 SE7       29.93R
ALEXANDRIA     CLEAR     52  45  77 SE7       29.97R
ELBOW LAKE     FAIR      53  47  81 E8        29.93R
WADENA         CLEAR     46  45  93 SE3       29.95R
GLENWOOD       CLEAR     50  46  87 SE6       29.97R
APPLETON       CLEAR     54  46  76 SE8       29.93S
BENSON         CLEAR     55  46  71 S9        29.96R
ORTONVILLE     CLEAR     52  46  82 NE8       29.92R
MADISON        CLEAR     52  52 100 SE7       29.93S
WILLMAR        FAIR      52  48  87 SE6       29.98R
$$
MNZ033>034-036-042>043-049>051-058-059-210800-
   Central Minnesota

CITY           SKY/WX    TMP DP  RH WIND       PRES   REMARKS
ST CLOUD       CLEAR     45  45 100 CALM      29.99R
SAUK CENTRE    FAIR      47  45  90 CALM      29.97R
PAYNESVILLE    CLEAR     48  47  98 CALM      29.98R
AITKIN         CLEAR     39  37  93 CALM      29.99R
PINE RIVER     CLEAR     39  37  93 CALM      30.01R
BRAINERD       CLEAR     46  44  93 CALM      29.98R
LITTLE FALLS   CLEAR     46  43  87 E3        29.98S
LITCHFIELD     CLEAR     54  52  94 E5        29.98S
BUFFALO        CLEAR     48  45  88 CALM      30.00S
MAPLE LAKE     CLEAR     49  49  99 CALM      30.00R
HUTCHINSON     CLEAR     49  48  95 E5        29.99S
$$
MNZ037-044-045-052-053-210800-
   East Central Minnesota

CITY           SKY/WX    TMP DP  RH WIND       PRES   REMARKS
PRINCETON      CLEAR     45  45 100 CALM      29.99F FOG
MORA           CLEAR     45  45 100 CALM      30.02S FOG
RUSH CITY        N/A     44  43  97 CALM      30.01R
MOOSE LAKE     CLEAR     41  39  93 CALM      29.99S FOG
HINCKLEY       FAIR      43  43 100 CALM      30.00S
CLOQUET        CLEAR     43  39  87 CALM      30.01R
MCGREGOR       CLEAR     43  41  93 CALM      30.01R
$$
MNZ071>073-080-081-089-090-097-098-210800-
   Southwest Minnesota

CITY           SKY/WX    TMP DP  RH WIND       PRES   REMARKS
MONTEVIDEO     CLEAR     52  48  87 S7        29.95R
GRANITE FALLS  CLEAR     54  49  83 E7        29.97R
CANBY          CLEAR     50  47  88 E5        29.94S
MARSHALL       CLEAR     52  46  80 SE9       29.96
REDWOOD FALLS  CLEAR     54  47  77 E7        29.97R
OLIVIA         CLEAR     55  48  76 E7        29.97R
PIPESTONE      CLEAR     54  45  71 SE6       29.95R
WORTHINGTON    CLEAR     50  46  86 E5        29.97S
JACKSON        CLEAR     52  46  82 CALM      29.98S
TRACY          CLEAR     54  48  81 SE7       29.96S
SLAYTON        CLEAR     48  44  87 CALM      29.97R
$$
MNZ065>067-074>077-082>085-091>093-210800-
   South Central Minnesota

CITY           SKY/WX    TMP DP  RH WIND       PRES   REMARKS
MANKATO        CLEAR     60  50  69 NE7       29.99S
NEW ULM        CLEAR     55  46  71 E6        29.98R
ST JAMES       CLEAR     52  48  87 E5        29.99R
FAIRMONT       CLEAR     53  48  83 E3        29.98S
GLENCOE        CLEAR     51  49  93 E3        29.98S
FARIBAULT      CLEAR     48  48 100 CALM      30.01R
OWATONNA       CLEAR     50  48  93 CALM      30.00R
WASECA         CLEAR     52  46  82 E5        30.01R
ALBERT LEA     CLEAR     54  54 100 VRB3      30.00R
$$
MNZ078>079-086>088-094>096-210800-
   Southeast Minnesota

CITY           SKY/WX    TMP DP  RH WIND       PRES   REMARKS
ROCHESTER      CLEAR     57  52  83 N6        30.00R
RED WING       CLEAR     52  50  93 CALM      29.99R
STANTON        CLEAR     50  49  95 CALM      30.00R
DODGE CENTER   CLEAR     54  50  87 CALM      30.00R
WINONA         CLEAR     57  55  94 NW3       29.99R
AUSTIN         CLEAR     54  50  87 CALM      29.99S
PRESTON        CLEAR     55  51  85 CALM      30.01R
$$
ABBREVIATIONS USED IN REMARKS
   TC - TEMPERATURES IN CELSIUS
  WCI - WIND CHILL INDEX
   HX - HEAT INDEX
  VSB - VISIBILITY
$$




USA.gov is the U.S. government's official web portal to all federal, state and local government web resources and services.